Pope Field

Airport
ICAO code: 
KPOB
Summary
ICAO Region: 
NAM
Territory: 
Location: 
Fayetteville, North Carolina,
Coordinates: 
Aerial View: 
35° 10' 15.167" N, 79° 0' 52.203" W
Metar
Observation
KPOB 211156Z AUTO 05011KT 10SM OVC026 M01/M05 A3032 RMK AO2 SLP272 60000 70047 T10081050 10002 21008 52017 $
Station
Pope Air Force Base
Date/Time
2022-01-21 11:56:00
Wind direction
50°
Wind speed
11 kts
Lowest cloud amount
overcast
Temperature
-0.8°C
Dew point
-5°C
Humidity
73%
Weather condition
n/a

Description

Pope Field, formerly known as Pope Air Force Base, is a military facility located 19 km northwest of the central business district of Fayetteville, in Cumberland County, North Carolina.

Climatology

Humid “subtropical” climate (Köppen climate classification Cfa) - characterized by hot, humid summers and cool winters. Significant amounts of precipitation occur in all seasons in most areas. Winter rainfall (and sometimes snowfall) is associated with large storms that the westerlies steer from west to east. Most summer rainfall occurs during thunderstorms and occasional tropical storms (hurricanes).

Runways

Designator Length Width Surface Rops
49/229 914 18 ASPH No/No
5/23 2286 46 PEM Yes/Yes
Airport map: 
Aerial View: 

SKYbrary Partners:

Safety knowledge contributed by: